Wind_Speed
49 50 50 52 53 54 54 55 55 55 54 56 57 58 58 59 59 60 61 61 62 63 64 65 66 67 68 68 69 70 71 73 73 74 74 75 75 75
50 51 52 53 54 55 55 56 57 58 57 58 59 60 61 61 62 63 64 64 65 66 67 68 68 69 70 71 72 73 73 73 73 73 73 73 74 74
51 52 53 54 55 55 56 57 58 59 60 59 61 62 63 64 65 65 66 66 67 68 69 69 70 71 72 73 74 74 73 72 71 71 72 72 72 72
52 52 53 54 55 56 58 59 60 61 62 62 62 63 64 65 66 66 67 68 68 70 71 71 72 73 73 73 72 71 71 70 70 70 69 69 69 69
52 53 54 55 57 58 59 60 62 63 64 65 64 64 64 66 66 67 68 69 70 72 72 72 72 72 72 71 70 70 69 68 67 66 65 65 64 63
53 54 56 57 58 60 61 62 63 64 65 66 65 65 65 66 67 68 68 69 70 71 71 71 71 70 70 69 68 67 65 63 61 60 59 58 57 56
54 56 57 58 59 61 62 63 64 65 66 66 66 66 66 66 67 68 68 69 69 69 69 69 69 68 66 65 62 59 57 55 54 53 52 52 51 50
55 56 57 59 60 61 62 64 65 66 66 66 66 66 66 66 67 68 69 68 67 66 67 66 65 63 61 58 55 53 52 50 49 48 47 45 44 43
56 57 58 59 61 62 64 65 66 66 67 67 66 65 66 67 68 68 68 67 65 64 64 61 60 59 56 54 52 50 48 47 45 44 41 40 38 36
57 58 59 61 62 64 65 65 65 65 66 66 66 66 67 68 68 67 66 65 63 62 62 59 56 55 53 51 49 47 45 43 41 38 36 35 33 32
58 59 61 62 64 65 66 65 65 65 65 65 66 66 67 67 67 66 65 63 61 60 59 57 54 51 48 47 45 43 41 38 36 35 33 32 31 30
60 61 62 64 65 65 66 65 65 65 65 65 66 66 65 65 66 65 63 61 60 58 56 54 50 47 43 41 40 39 37 35 33 31 30 29 28 27
61 62 63 65 65 65 65 65 65 66 65 65 65 64 64 64 63 62 60 59 58 56 53 49 45 42 38 34 34 34 33 32 30 28 26 25 25 25
62 63 65 65 65 65 65 66 66 66 66 65 63 63 62 61 60 58 58 57 55 53 49 44 40 37 34 31 30 31 31 29 26 25 23 22 22 22
63 65 65 65 64 64 65 65 65 65 64 63 62 60 59 58 56 56 55 53 51 47 43 39 36 33 31 30 28 28 27 25 24 22 21 20 20 19
64 64 64 64 64 64 64 64 63 63 61 60 58 57 56 55 53 52 50 47 44 41 38 35 33 31 29 28 26 24 23 22 21 19 19 18 17 17
64 63 63 63 62 63 62 62 61 59 58 57 56 55 53 51 49 46 43 40 38 36 34 32 30 28 27 25 22 21 19 18 18 17 16 16 15 14
63 63 62 62 62 61 60 59 58 56 56 55 53 51 48 45 42 40 38 36 34 33 31 28 27 25 23 22 20 18 16 15 15 15 14 13 12 11
62 62 61 61 60 59 58 57 55 54 53 51 48 46 43 41 39 37 35 33 31 29 27 25 24 22 21 19 17 15 14 13 13 13 12 10 9 9
61 61 60 60 59 57 56 54 52 50 48 46 44 41 39 38 37 35 33 31 28 27 25 23 21 20 18 16 14 13 13 12 12 11 10 9 8 7
60 59 59 58 57 55 53 50 48 46 44 42 40 38 37 36 35 33 30 28 26 25 22 20 19 17 15 14 12 12 12 11 10 9 9 8 6 6
58 58 58 57 54 51 49 47 45 43 41 39 37 36 35 34 32 30 28 26 24 22 20 18 16 15 13 12 12 11 10 10 9 8 8 7 6 5
58 57 56 53 51 48 46 44 42 40 38 36 35 34 33 32 30 28 26 24 22 20 18 16 15 13 12 11 11 10 9 9 8 7 6 6 6 5
Wind_Direction
298 298 298 298 298 298 299 299 299 298 298 299 299 298 298 297 297 296 296 295 294 294 293 293 292 291 290 289 288 287 286 284 282 280 278 276 275 274
298 298 297 298 298 299 299 299 299 299 299 300 299 299 298 298 298 297 297 296 296 295 295 294 293 293 292 291 290 288 287 285 283 281 280 278 276 274
298 298 298 298 299 299 299 299 300 300 300 300 300 300 299 298 298 298 298 298 297 297 296 296 295 294 294 293 291 290 288 286 284 283 281 279 277 276
298 298 298 299 299 299 299 300 300 300 301 301 301 299 299 298 298 298 298 298 298 298 297 296 296 295 295 294 292 291 289 287 286 284 282 281 279 277
299 299 299 299 300 300 300 300 300 300 301 301 301 300 299 299 298 298 299 299 299 299 299 298 297 296 295 294 293 292 290 288 286 285 283 281 279 276
299 300 300 300 300 300 300 300 300 301 301 301 301 300 300 299 299 299 299 300 300 300 299 299 298 297 296 295 294 292 291 289 287 286 284 282 279 277
300 300 300 300 300 300 300 300 301 301 301 301 301 300 300 299 300 300 301 301 301 301 300 300 299 298 297 296 295 293 291 290 288 287 286 284 281 278
301 301 301 301 301 301 301 302 302 302 301 301 301 301 301 301 301 301 302 302 302 301 301 301 300 300 299 297 295 294 292 290 289 288 288 285 282 279
302 302 302 302 302 302 302 302 302 302 301 301 301 301 302 302 302 302 303 303 303 303 302 302 300 299 298 297 296 294 292 291 290 289 288 285 283 280
303 303 302 302 302 303 303 303 302 301 301 301 302 302 302 303 303 303 303 303 303 304 304 302 300 299 297 297 295 294 293 292 291 289 286 284 282 281
303 303 303 303 303 303 303 302 302 301 301 302 302 302 303 303 303 303 303 303 304 304 303 303 301 299 297 297 295 293 293 292 290 288 286 284 282 281
303 304 304 304 304 303 303 303 302 302 302 302 302 302 302 303 303 303 303 304 304 304 304 303 301 299 298 295 293 293 293 292 291 289 286 284 282 281
304 305 305 305 305 304 303 303 303 303 303 303 303 302 302 302 302 303 303 304 305 305 304 303 302 300 299 296 293 293 293 293 291 290 288 285 283 282
305 306 306 305 304 304 304 304 304 304 304 304 303 303 302 302 302 303 304 304 305 305 304 302 301 299 298 297 294 293 293 292 291 290 289 287 285 283
307 307 306 305 304 304 304 304 304 305 304 304 304 304 303 303 303 303 303 304 305 304 303 302 299 298 298 297 295 292 291 291 291 289 287 286 284 284
308 307 306 306 306 306 305 305 305 305 305 305 305 305 304 304 304 303 304 304 304 303 302 301 298 296 297 297 295 292 290 289 288 286 286 285 285 284
309 308 307 307 307 306 306 305 305 305 305 306 306 306 306 306 305 305 305 305 304 303 301 299 297 295 296 295 293 291 289 287 285 285 285 285 285 283
309 309 309 308 308 307 306 306 305 305 306 306 307 308 308 307 307 307 306 305 304 303 301 298 296 295 294 293 291 288 286 285 285 286 285 284 283 281
310 310 310 309 309 308 308 308 307 306 306 307 307 308 308 309 308 308 307 306 304 303 300 297 294 293 292 290 286 284 283 283 284 284 283 281 280 280
310 311 311 311 310 310 309 308 308 307 307 307 307 308 308 309 309 308 307 305 304 303 300 296 292 290 289 285 280 279 280 281 281 280 278 278 276 277
311 311 311 311 311 311 310 309 309 308 308 307 307 307 308 309 309 308 306 305 304 303 299 294 290 287 283 278 276 275 276 279 279 275 274 272 270 270
311 311 312 312 312 311 310 310 309 309 308 307 306 307 307 308 308 306 305 303 303 302 298 292 287 284 278 274 272 272 272 275 274 270 266 262 259 256
311 312 312 312 312 311 311 311 310 310 309 308 307 307 307 307 306 305 304 302 300 299 295 289 283 279 274 268 267 267 268 269 267 264 257 250 246 241
Height
5670 5665 5660 5656 5651 5646 5641 5636 5632 5628 5626 5620 5613 5607 5600 5595 5590 5585 5580 5575 5570 5565 5560 5555 5550 5545 5540 5535 5531 5527 5523 5519 5515 5512 5510 5508 5506 5504
5658 5653 5649 5643 5638 5633 5628 5623 5618 5613 5609 5606 5598 5592 5585 5579 5573 5568 5563 5557 5552 5546 5540 5534 5529 5523 5518 5513 5508 5503 5498 5494 5490 5487 5484 5482 5480 5479
5647 5642 5637 5631 5626 5621 5615 5610 5604 5598 5594 5590 5583 5576 5569 5563 5556 5550 5544 5539 5533 5526 5520 5514 5508 5502 5496 5490 5485 5479 5474 5470 5466 5462 5459 5457 5455 5454
5635 5630 5624 5619 5614 5608 5602 5596 5590 5583 5578 5574 5568 5560 5553 5546 5540 5533 5527 5520 5514 5507 5500 5493 5486 5480 5473 5467 5461 5456 5451 5446 5442 5438 5435 5433 5431 5429
5623 5617 5612 5606 5601 5594 5588 5582 5575 5569 5562 5556 5551 5544 5537 5529 5522 5516 5509 5502 5494 5487 5479 5472 5465 5458 5451 5445 5439 5434 5428 5423 5419 5416 5412 5409 5407 5405
5611 5605 5599 5593 5587 5580 5574 5567 5560 5553 5546 5539 5534 5527 5520 5512 5504 5498 5492 5484 5476 5467 5459 5451 5443 5436 5429 5423 5418 5412 5407 5402 5398 5394 5391 5388 5386 5385
5598 5592 5585 5579 5572 5565 5559 5552 5545 5537 5530 5523 5516 5510 5503 5495 5487 5479 5473 5466 5458 5448 5440 5432 5424 5417 5409 5403 5397 5392 5387 5383 5379 5376 5373 5370 5368 5367
5585 5579 5572 5565 5558 5551 5543 5536 5528 5520 5513 5506 5499 5492 5485 5477 5469 5461 5453 5447 5441 5433 5422 5415 5405 5398 5391 5385 5380 5375 5371 5367 5364 5361 5358 5355 5352 5351
5572 5565 5558 5551 5543 5536 5528 5521 5512 5503 5496 5488 5481 5474 5466 5459 5451 5444 5435 5427 5420 5412 5404 5399 5390 5382 5375 5369 5364 5360 5356 5353 5350 5347 5344 5342 5340 5338
5558 5551 5544 5536 5528 5520 5513 5505 5497 5488 5479 5471 5464 5457 5449 5440 5432 5425 5417 5410 5404 5395 5386 5381 5375 5367 5360 5354 5349 5346 5343 5340 5337 5334 5332 5330 5328 5327
5543 5536 5528 5521 5513 5504 5496 5489 5481 5473 5464 5455 5448 5440 5431 5422 5414 5407 5400 5393 5388 5380 5371 5364 5359 5353 5348 5342 5336 5332 5330 5328 5325 5323 5321 5319 5318 5317
5529 5521 5512 5504 5496 5487 5479 5471 5464 5456 5448 5440 5432 5423 5414 5406 5397 5389 5382 5376 5370 5365 5357 5349 5344 5338 5336 5331 5325 5321 5319 5317 5315 5313 5311 5310 5309 5308
5513 5505 5497 5488 5479 5470 5462 5454 5446 5438 5431 5423 5415 5407 5398 5390 5381 5373 5366 5360 5354 5348 5341 5335 5330 5325 5322 5320 5316 5312 5309 5307 5305 5304 5302 5301 5300 5299
5497 5489 5480 5471 5462 5454 5445 5437 5429 5421 5413 5405 5398 5390 5382 5374 5366 5358 5351 5345 5338 5333 5327 5322 5318 5315 5311 5309 5307 5304 5301 5299 5297 5296 5295 5294 5293 5292
5479 5471 5463 5454 5445 5437 5429 5420 5412 5403 5396 5388 5381 5373 5365 5357 5350 5344 5337 5331 5325 5319 5315 5310 5307 5305 5302 5300 5298 5296 5293 5292 5290 5289 5288 5287 5286 5285
5463 5454 5445 5436 5428 5420 5412 5403 5395 5387 5379 5371 5364 5357 5349 5342 5335 5329 5323 5318 5313 5308 5304 5300 5297 5295 5293 5291 5289 5288 5286 5285 5284 5283 5282 5281 5281 5280
5446 5438 5429 5421 5412 5404 5395 5387 5379 5371 5363 5356 5349 5342 5335 5327 5321 5315 5310 5306 5302 5298 5294 5291 5288 5286 5285 5283 5282 5281 5280 5279 5278 5277 5277 5276 5276 5275
5430 5422 5413 5404 5396 5388 5380 5372 5364 5356 5349 5342 5335 5328 5322 5315 5309 5304 5300 5296 5292 5289 5286 5283 5281 5279 5277 5276 5276 5275 5274 5274 5273 5273 5272 5272 5272 5272
5415 5407 5398 5389 5380 5372 5364 5357 5349 5342 5335 5328 5322 5316 5310 5305 5300 5295 5291 5287 5284 5281 5278 5275 5273 5272 5271 5270 5270 5270 5270 5269 5269 5269 5268 5268 5268 5268
5400 5392 5383 5374 5366 5357 5350 5342 5335 5328 5322 5316 5311 5305 5300 5296 5291 5287 5283 5279 5276 5273 5270 5268 5267 5266 5265 5265 5265 5265 5265 5265 5265 5265 5265 5265 5266 5266
5386 5377 5368 5360 5351 5344 5336 5329 5322 5316 5311 5305 5300 5296 5291 5287 5283 5278 5275 5272 5269 5266 5264 5262 5260 5260 5259 5260 5261 5261 5261 5261 5262 5262 5262 5263 5264 5264
5371 5363 5355 5346 5338 5331 5323 5317 5311 5305 5300 5295 5291 5286 5282 5278 5274 5270 5267 5265 5262 5260 5258 5256 5255 5255 5255 5256 5256 5257 5258 5258 5258 5259 5260 5261 5261 5262
5357 5349 5341 5333 5326 5319 5312 5305 5300 5294 5290 5285 5281 5277 5273 5270 5266 5263 5260 5258 5256 5254 5252 5251 5251 5251 5251 5252 5252 5253 5254 5255 5256 5257 5258 5258 5259 5260